Weather Service Report


410 
ASUS44 KEWX 270602
RWREWX
SOUTH TEXAS REGIONAL WEATHER ROUNDUP
NATIONAL WEATHER SERVICE AUSTIN/SAN ANTONIO TX
100 AM CDT THU APR 27 2017

NOTE: "FAIR" INDICATED FEW OR NO CLOUDS BELOW 12,000 FEET WITH NO
SIGNIFICANT WEATHER AND/OR OBSTRUCTIONS TO VISIBILITY.

* - THESE STATIONS ARE NOT NWS OR FAA STATIONS...AND ARE NOT SUBJECT
    TO NWS AND FAA QUALITY CONTROL.
 
TXZ171-172-183>190-270700-
TEXAS HILL COUNTRY AND EDWARDS PLATEAU
  
CITY           SKY/WX    TMP DP  RH WIND       PRES   REMARKS
JUNCTION       CLEAR     57  41  55 E5        29.80S                  
6HR MIN TEMP:  56; 6HR MAX TEMP:  76;                                

*LLANO         CLEAR     54  45  71 CALM      29.82F                  
BURNET         CLEAR     55  44  66 N6        29.82F                  
6HR MIN TEMP:  55; 6HR MAX TEMP:  73;                                

*HORSESHOE BAY CLEAR     58  45  61 NE3       29.80F                  
6HR MIN TEMP:  58; 6HR MAX TEMP:  75;                                

*KERRVILLE     CLEAR     58  45  60 CALM      29.82S                  
6HR MIN TEMP:  58; 6HR MAX TEMP:  78;                                

*FREDERICKSBRG CLEAR     56  41  56 E3        29.80F                  
*ROCKSPRINGS   CLEAR     55  39  54 CALM      29.85S                  
*BOERNE STAGE  CLEAR     54  43  66 CALM      29.83R                  
*CASTROVILLE   CLEAR     63  43  48 NE3       29.81R                  
HONDO          CLEAR     58  46  64 NE9       29.79S                  
6HR MIN TEMP:  57; 6HR MAX TEMP:  85;                                

*UVALDE        CLEAR     59  44  56 NE6       29.79S                  
6HR MIN TEMP:  59; 6HR MAX TEMP:  82;                                

DEL RIO        PTCLDY    64  37  36 NE7       29.77S                  
6HR MIN TEMP:  64; 6HR MAX TEMP:  85;                                

LAUGHLIN AFB   PTCLDY    58  42  54 N8        29.78R                  
6HR MIN TEMP:  58; 6HR MAX TEMP:  84;                                

CARRIZO SPRGS  CLEAR     61  43  51 CALM      29.77R                  
*EAGLE PASS    NOT AVBL                                               
$$

TXZ173-191>194-202-209-217>225-228-270700-
CENTRAL AND SOUTH CENTRAL TEXAS
  
CITY           SKY/WX    TMP DP  RH WIND       PRES   REMARKS
GEORGETOWN     CLEAR     55  43  62 N6        29.81S                  
6HR MIN TEMP:  55; 6HR MAX TEMP:  73;                                

AUSTIN/BERGSTM CLEAR     62  46  55 N13       29.79R                  
6HR MIN TEMP:  62; 6HR MAX TEMP:  81;                                

AUSTIN/MABRY   CLEAR     62  45  53 N6        29.79S                  
6HR MIN TEMP:  62; 6HR MAX TEMP:  78;                                

*AUSTIN/EXEC   FAIR      57  46  67 N10       29.80S                  
*LAGO VISTA    CLEAR     58  45  62 NE6       29.81S                  
6HR MIN TEMP:  58; 6HR MAX TEMP:  75;                                

SAN MARCOS     PTCLDY    57  45  62 E5        29.81R                  
6HR MIN TEMP:  57; 6HR MAX TEMP:  82;                                

NEW BRAUNFELS  CLEAR     58  46  64 NE7       29.78R                  
6HR MIN TEMP:  56; 6HR MAX TEMP:  85;                                

RANDOLPH AFB   CLEAR     61  47  60 N5        29.79S                  
6HR MIN TEMP:  61; 6HR MAX TEMP:  84;                                

PT SAN ANTONIO CLEAR     65  46  50 NE6       29.77R                  
6HR MIN TEMP:  64; 6HR MAX TEMP:  85;                                

SAN ANTONIO    CLEAR     65  44  46 N9        29.80R                  
6HR MIN TEMP:  64; 6HR MAX TEMP:  84; 6HR PCP: TRACE;                

STINSON FIELD  PTCLDY    68  45  43 NE6       29.78R                  
6HR MIN TEMP:  67; 6HR MAX TEMP:  88;                                

*LA GRANGE     CLEAR     64  49  58 N8        29.78S                  
*GIDDINGS      CLEAR     60  47  60 NE6       29.79S                  
6HR MIN TEMP:  60; 6HR MAX TEMP:  82;                                

*GONZALES      CLEAR     62  49  62 NE3       29.79R                  
6HR MIN TEMP:  62; 6HR MAX TEMP:  86;                                

$$

TXZ163>164-176>182-195>201-210>213-226-227-235-270700-
SOUTHEAST TEXAS
  
CITY           SKY/WX    TMP DP  RH WIND       PRES   REMARKS
COLLEGE STN    CLEAR     59  47  64 N9        29.81S                  
6HR MIN TEMP:  59; 6HR MAX TEMP:  74;                                

*BRYAN         CLEAR     55  47  76 N6        29.82F                  
6HR MIN TEMP:  55; 6HR MAX TEMP:  72;                                

*CALDWELL      NOT AVBL                                               
*CROCKETT      CLEAR     54  48  82 N5        29.84S                  
*BRENHAM       CLEAR     60  49  68 N10       29.80S                  
6HR MIN TEMP:  60; 6HR MAX TEMP:  78;                                

HUNTSVILLE     CLEAR     58  47  66 N8        29.81F                  
6HR MIN TEMP:  58; 6HR MAX TEMP:  74;                                

CONROE         CLEAR     60  51  72 N10       29.80S                  
6HR MIN TEMP:  60; 6HR MAX TEMP:  78;                                

HOUSTON BUSH   PTCLDY    63  52  67 N10       29.80R                  
6HR MIN TEMP:  63; 6HR MAX TEMP:  85;                                

HOUSTON HOBBY  PTCLDY    65  53  65 N16       29.78R                  
6HR MIN TEMP:  65; 6HR MAX TEMP:  90;                                

*HOUSTON SW AP PTCLDY    65  49  57 N7        29.79S                  
6HR MIN TEMP:  65; 6HR MAX TEMP:  86;                                

PEARLAND       PTCLDY    69  53  56 N13G24    29.79R                  
6HR MIN TEMP:  69; 6HR MAX TEMP:  92;                                

HOUSTON HOOKS  PTCLDY    63  49  60 N5        29.80R                  
6HR MIN TEMP:  63; 6HR MAX TEMP:  83;                                

ELLINGTON FLD  PTCLDY    66  52  59 N10       29.80R                  
SUGAR LAND     PTCLDY    66  49  54 N14       29.79R                  
6HR MIN TEMP:  66; 6HR MAX TEMP:  87;                                

*HOUSTON EXEC  CLOUDY    63  50  63 NE9G21    29.80R                  
*CLEVELAND MUN PTCLDY    60  53  78 CALM      29.81R                  
*WHARTON       CLEAR     63  51  63 N5        29.80R                  
*COLUMBUS      FAIR      63  46  55 N5        29.80R                  
6HR MIN TEMP:  63; 6HR MAX TEMP:  84;                                

*EAGLE LAKE    CLEAR     61  53  74 N8        29.79S                  
6HR MIN TEMP:  61; 6HR MAX TEMP:  85;                                

$$

TXZ214>216-236>238-270700-
THE UPPER TEXAS COAST
  
CITY           SKY/WX    TMP DP  RH WIND       PRES   REMARKS
*ORANGE        CLOUDY    60  55  81 NW9       29.79R                  
6HR MIN TEMP:  60; 6HR MAX TEMP:  78;                                

PORT ARTHUR    CLOUDY    61  53  75 N15       29.77R                  
6HR MIN TEMP:  61; 6HR MAX TEMP:  79; 6HR PCP:  0.02;                

GALVESTON      CLEAR     70  59  68 N26G35    29.77R                  
6HR MIN TEMP:  70; 6HR MAX TEMP:  80;                                

ANGLETON       CLEAR     65  54  67 N10       29.77R                  
6HR MIN TEMP:  65; 6HR MAX TEMP:  84;                                

*BAY CITY      CLEAR     68  54  62 N13       29.76S                  
PALACIOS       CLEAR     67  52  58 N17       29.74F                  
6HR MIN TEMP:  67; 6HR MAX TEMP:  89;                                

$$

TXZ229>234-239>247-270700-
TEXAS COASTAL BEND AND RIO GRANDE PLAINS
  
CITY           SKY/WX    TMP DP  RH WIND       PRES   REMARKS
VICTORIA       CLEAR     67  52  58 NE14      29.76S                  
6HR MIN TEMP:  67; 6HR MAX TEMP:  89;                                

*BEEVILLE      CLEAR     71  55  56 NE9G18    29.77R                  
6HR MIN TEMP:  71; 6HR MAX TEMP:  93;                                

ROCKPORT       CLEAR     72  55  55 NE12G21   29.76R                  
6HR MIN TEMP:  72; 6HR MAX TEMP:  93;                                

*PORT ARANSAS  CLEAR     73  56  55 NE20G28   29.75R                  
6HR MIN TEMP:  73; 6HR MAX TEMP:  84;                                

*PORT LAVACA   CLEAR     67  58  72 NE12      29.77R                  
6HR MIN TEMP:  67; 6HR MAX TEMP:  89;                                

*INGLESIDE     CLEAR     74  57  54 NE21G30   29.75R                  
CORPUS CHRISTI CLEAR     73  54  51 NE17      29.75R                  
6HR MIN TEMP:  73; 6HR MAX TEMP:  92;                                

CORPUS NAS     CLEAR     77  60  55 NE23      29.75R                  
6HR MIN TEMP:  77; 6HR MAX TEMP:  92;                                

*ROBSTOWN      CLEAR     74  52  45 NE13G18   29.76R                  
6HR MIN TEMP:  74; 6HR MAX TEMP:  94;                                

ALICE          CLEAR     72  47  40 NE9       29.76R                  
6HR MIN TEMP:  68; 6HR MAX TEMP:  94;                                

KINGSVILLE NAS CLEAR     71  47  42 NE10      29.75R                  
6HR MIN TEMP:  70; 6HR MAX TEMP:  95;                                

COTULLA        CLEAR     72  41  32 E6        29.77R                  
6HR MIN TEMP:  72; 6HR MAX TEMP:  93;                                

*FAITH RANCH   CLEAR     70  36  28 NE7       29.77R                  
LAREDO         CLEAR     74  39  28 NE14      29.75R                  
6HR MIN TEMP:  74; 6HR MAX TEMP:  92;                                

$$

TXZ248>255-270700-
DEEP SOUTH TEXAS
  
CITY           SKY/WX    TMP DP  RH WIND       PRES   REMARKS
BROWNSVILLE    CLOUDY    76  70  82 N5        29.69R                  
6HR MIN TEMP:  74; 6HR MAX TEMP:  91;                                

PORT ISABEL    CLOUDY    74  70  87 N6        29.69R FOG              
6HR MIN TEMP:  74; 6HR MAX TEMP:  87;                                

*SOUTH PADRE   NOT AVBL                                               
HARLINGEN      CLEAR     70  70 100 N8        29.68S FOG              
6HR MIN TEMP:  70; 6HR MAX TEMP:  92;                                

*HEBBRONV

Return to Home page


Western Regional Climate Center, wrcc@dri.edu